Location: Unspecified
(0.0000°N, 0.0000°E)
Time: 08:43:36
(UTC+00:00)

ATLAS 5 CENTAUR DEB - Pass Details

Date: 09 December 2025
Orbit: 8829 x 35105 km, 13.2° (Epoch: 17 January)

Event Time Altitude Azimuth Distance (km) Brightness Sun altitude
Rises 19:06:44 0° 257° (WSW) 14,666 ? -17.0°
Reaches altitude 10° 19:16:46 10° 254° (WSW) 13,035 ? -19.3°
Maximum altitude 20:10:04 79° 159° (SSE) 10,899 ? -31.3°
Drops below altitude 10° 07:34:18 10° 96° (E) 18,089 ? 23.2°
Sets 07:47:58 0° 98° (E) 17,557 ? 26.3°
